Weather History for Cadillac, MI

Change the Weather History Date:

Thursday, July 4, 2013

  Actual Average Record
Temperature  
Mean Temperature 69 °F -  
Max Temperature 77 °F 77 °F 95 °F (2012)
Min Temperature 61 °F 54 °F 40 °F (1972)
Cooling Degree Days 4    
Growing Degree Days 19 (Base 50)    
Moisture  
Dew Point 60 °F    
Average Humidity 78    
Maximum Humidity 92    
Minimum Humidity 51    
Precipitation  
Precipitation 0.00 in - - ()
Sea Level Pressure  
Sea Level Pressure 30.08 in    
Wind  
Wind Speed 4 mph (SW)    
Max Wind Speed 13 mph    
Max Gust Speed 16 mph    
Visibility 6 miles    
Events Fog    
Averages and records for this station are not official NWS values.
T = Trace of Precipitation, MM = Missing Value Source: NWS Daily Summary

Daily Weather History Graph

Daily Weather History Graph

Search for Another Location

Airport:

Trip Planner

Search our weather history database for the weather conditions in past years. The results will help you decide how hot, cold, wet, or windy it might be!

Date:

Astronomy

Jul. 04, 2013 Rise Set
Actual Time 6:03 AM EDT 9:28 PM EDT
Civil Twilight 5:27 AM EDT 10:04 PM EDT
Nautical Twilight 4:39 AM EDT 10:51 PM EDT
Astronomical Twilight 3:39 AM EDT 11:51 PM EDT
Moon 3:23 AM EDT (7/4) 6:29 PM EDT (7/4)
Length of Visible Light 16h 37m
Length of Day
15h 24m
Waning Crescent, 11% of the Moon is Illuminated
Jul 4
Waning Crescent
Jul 8
New
Jul 15
First Quarter
Jul 22
Full
Jul 29
Last Quarter

Hourly Weather History & Observations

Time (EDT) Temp. Dew Point Humidity Pressure Visibility Wind Dir Wind Speed Gust Speed Precip Events Conditions
12:15 AM 61.7 °F 59.0 °F 91% 30.07 in 0.5 mi Calm Calm - N/A Fog Fog
12:35 AM 61.7 °F 59.0 °F 91% 30.07 in 1.0 mi Calm Calm - N/A   Overcast
12:55 AM 62.8 °F 60.4 °F 92% 30.07 in 2.0 mi Calm Calm - N/A   Overcast
1:15 AM 62.8 °F 60.3 °F 91% 30.07 in 2.0 mi Calm Calm - N/A   Overcast
1:35 AM 64.0 °F 61.7 °F 92% 30.07 in 4.0 mi Calm Calm - N/A   Overcast
1:55 AM 64.0 °F 61.7 °F 92% 30.07 in 4.0 mi Calm Calm - N/A   Mostly Cloudy
2:15 AM 62.8 °F 60.3 °F 91% 30.06 in 2.5 mi Calm Calm - N/A   Scattered Clouds
2:35 AM 62.8 °F 60.4 °F 92% 30.06 in 3.0 mi Calm Calm - N/A   Scattered Clouds
2:55 AM 62.8 °F 60.3 °F 91% 30.05 in 2.5 mi Calm Calm - N/A   Mostly Cloudy
3:14 AM 62.8 °F 60.4 °F 92% 30.05 in 1.8 mi South 3.5 mph - N/A   Overcast
3:35 AM 62.8 °F 60.4 °F 92% 30.05 in 2.5 mi South 3.5 mph - N/A   Overcast
3:55 AM 61.7 °F 59.2 °F 91% 30.05 in 3.0 mi South 3.5 mph - N/A   Scattered Clouds
4:14 AM 61.7 °F 59.0 °F 91% 30.05 in 4.0 mi Calm Calm - N/A   Clear
4:35 AM 61.7 °F 59.0 °F 91% 30.05 in 3.0 mi Calm Calm - N/A   Clear
4:55 AM 61.7 °F 59.0 °F 91% 30.05 in 3.0 mi SSW 3.5 mph - N/A   Clear
5:14 AM 61.7 °F 59.0 °F 91% 30.05 in 2.5 mi South 4.6 mph - N/A   Clear
5:35 AM 61.7 °F 59.0 °F 91% 30.05 in 3.0 mi SSW 8.1 mph - N/A   Mostly Cloudy
5:55 AM 61.7 °F 59.0 °F 91% 30.06 in 4.0 mi SSW 11.5 mph - N/A   Overcast
6:14 AM 61.7 °F 59.0 °F 91% 30.07 in 3.0 mi SW 9.2 mph - N/A   Overcast
6:35 AM 61.7 °F 59.0 °F 91% 30.07 in 2.0 mi SW 11.5 mph - N/A   Overcast
6:55 AM 61.7 °F 59.0 °F 91% 30.08 in 2.0 mi SW 10.4 mph - N/A   Overcast
7:14 AM 61.7 °F 59.0 °F 91% 30.08 in 3.0 mi SW 8.1 mph - N/A   Overcast
7:35 AM 61.7 °F 59.0 °F 91% 30.09 in 3.0 mi SW 8.1 mph - N/A   Overcast
7:55 AM 61.7 °F 59.0 °F 91% 30.09 in 2.0 mi SSW 9.2 mph - N/A   Overcast
8:14 AM 61.7 °F 59.0 °F 91% 30.10 in 1.2 mi SSW 4.6 mph - N/A   Overcast
8:35 AM 61.7 °F 59.0 °F 91% 30.10 in 1.0 mi SW 5.8 mph - N/A   Overcast
8:55 AM 61.7 °F 59.2 °F 91% 30.10 in 1.5 mi SW 6.9 mph - N/A   Overcast
9:14 AM 62.1 °F 59.5 °F 91% 30.10 in 3.0 mi WSW 6.9 mph - N/A   Overcast
9:35 AM 62.8 °F 60.1 °F 91% 30.10 in 2.5 mi West 3.5 mph - N/A   Overcast
9:55 AM 62.8 °F 59.9 °F 90% 30.11 in 3.0 mi SW 5.8 mph - N/A   Overcast
10:14 AM 63.0 °F 60.1 °F 90% 30.11 in 3.0 mi WSW 4.6 mph - N/A   Overcast
10:35 AM 64.0 °F 61.0 °F 90% 30.10 in 4.0 mi SW 5.8 mph - N/A   Overcast
10:55 AM 64.6 °F 60.8 °F 88% 30.10 in 5.0 mi WSW 4.6 mph - N/A   Overcast
11:14 AM 64.8 °F 60.8 °F 87% 30.10 in 5.0 mi SW 6.9 mph - N/A   Overcast
11:35 AM 66.6 °F 62.1 °F 85% 30.11 in 7.0 mi SW 4.6 mph - N/A   Overcast
11:55 AM 69.1 °F 63.0 °F 81% 30.10 in 10.0 mi SW 5.8 mph - N/A   Overcast
12:14 PM 69.1 °F 62.2 °F 79% 30.10 in 10.0 mi SW 4.6 mph - N/A   Overcast
12:35 PM 71.6 °F 63.9 °F 76% 30.10 in 10.0 mi SW 6.9 mph - N/A   Overcast
12:55 PM 71.6 °F 62.2 °F 72% 30.10 in 10.0 mi WSW 4.6 mph - N/A   Overcast
1:14 PM 71.6 °F 62.8 °F 74% 30.10 in 10.0 mi SSW 5.8 mph - N/A   Overcast
1:35 PM 72.3 °F 61.0 °F 67% 30.09 in 10.0 mi South 3.5 mph - N/A   Scattered Clouds
1:55 PM 75.9 °F 61.9 °F 62% 30.10 in 10.0 mi South 4.6 mph - N/A   Scattered Clouds
2:14 PM 75.4 °F 61.7 °F 62% 30.09 in 10.0 mi SW 5.8 mph - N/A   Scattered Clouds
2:35 PM 76.6 °F 60.6 °F 58% 30.08 in 10.0 mi SSW 4.6 mph - N/A   Scattered Clouds
2:55 PM 76.6 °F 59.9 °F 56% 30.08 in 10.0 mi SW 9.2 mph - N/A   Scattered Clouds
3:14 PM 76.6 °F 59.7 °F 56% 30.07 in 10.0 mi SW 8.1 mph - N/A   Scattered Clouds
3:35 PM 76.6 °F 59.4 °F 55% 30.07 in 10.0 mi WSW 8.1 mph - N/A   Scattered Clouds
3:55 PM 76.6 °F 58.8 °F 54% 30.07 in 10.0 mi South 9.2 mph - N/A   Mostly Cloudy
4:14 PM 77.2 °F 58.8 °F 53% 30.07 in 10.0 mi SW 11.5 mph - N/A   Scattered Clouds
4:35 PM 76.6 °F 57.4 °F 51% 30.07 in 10.0 mi South 9.2 mph 16.1 mph N/A   Scattered Clouds
4:55 PM 76.6 °F 60.3 °F 57% 30.07 in 10.0 mi South 8.1 mph - N/A   Scattered Clouds
5:14 PM 76.6 °F 59.5 °F 55% 30.07 in 10.0 mi SSW 11.5 mph - N/A   Mostly Cloudy
5:35 PM 76.6 °F 61.3 °F 59% 30.07 in 10.0 mi South 9.2 mph - N/A   Mostly Cloudy
5:55 PM 76.6 °F 61.3 °F 59% 30.07 in 10.0 mi South 11.5 mph 16.1 mph N/A   Scattered Clouds
6:14 PM 76.3 °F 59.9 °F 57% 30.07 in 10.0 mi SSW 12.7 mph - N/A   Scattered Clouds
6:35 PM 76.6 °F 59.9 °F 56% 30.07 in 10.0 mi SW 9.2 mph - N/A   Clear
6:55 PM 76.6 °F 59.4 °F 55% 30.07 in 10.0 mi SW 12.7 mph - N/A   Clear
7:14 PM 76.6 °F 59.9 °F 56% 30.06 in 10.0 mi WSW 11.5 mph - N/A   Scattered Clouds
7:35 PM 72.9 °F 58.6 °F 61% 30.07 in 10.0 mi SW 8.1 mph - N/A   Scattered Clouds
7:54 PM 71.6 °F 58.3 °F 63% 30.07 in 10.0 mi SW 9.2 mph - N/A   Clear
8:15 PM 71.6 °F 60.4 °F 68% 30.06 in 10.0 mi SW 3.5 mph - N/A   Clear
8:35 PM 71.6 °F 60.1 °F 67% 30.06 in 10.0 mi SW 5.8 mph - N/A   Clear
8:54 PM 71.6 °F 59.9 °F 66% 30.07 in 10.0 mi SW 4.6 mph - N/A   Clear
9:15 PM 69.1 °F 59.0 °F 70% 30.06 in 10.0 mi SW 5.8 mph - N/A   Clear
9:35 PM 66.6 °F 57.9 °F 74% 30.06 in 10.0 mi SW 4.6 mph - N/A   Clear
9:54 PM 65.1 °F 57.4 °F 76% 30.07 in 10.0 mi South 3.5 mph - N/A   Clear
10:15 PM 64.2 °F 56.8 °F 77% 30.08 in 10.0 mi SSW 4.6 mph - N/A   Clear
10:35 PM 64.0 °F 57.2 °F 78% 30.08 in 10.0 mi Calm Calm - N/A   Clear
10:54 PM 62.6 °F 56.5 °F 80% 30.08 in 10.0 mi SSW 3.5 mph - N/A   Clear
11:15 PM 62.2 °F 56.8 °F 82% 30.08 in 10.0 mi Calm Calm - N/A   Clear
11:35 PM 61.7 °F 56.3 °F 82% 30.08 in 10.0 mi Calm Calm - N/A   Clear
11:54 PM 61.7 °F 56.5 °F 83% 30.08 in 10.0 mi Calm Calm - N/A   Clear